• In Czech Republic
  • List of Countries
  • For 7 days
  • Water Temperature
  • Satellite Maps
  • Weather Map
  • Weather Widgets
  • user-avatar
    Login

    Hourly Weather Zorya

    Today, 18 July, Wednesday

    Time Temperature Precipitation Wind Pressure Humidity
    00:00 +20°C° 0.2 mm 1 mps 740 mmHg 90%
    01:00 +20°C° 0.2 mm 1 mps 740 mmHg 92%
    02:00 +19°C° 0 mm 1 mps 740 mmHg 92%
    03:00 +19°C° 0 mm 1 mps 740 mmHg 93%
    04:00 +19°C° 0 mm 1 mps 740 mmHg 93%
    05:00 +19°C° 0 mm 1 mps 740 mmHg 94%
    06:00 +20°C° 0.2 mm 1 mps 740 mmHg 92%
    07:00 +21°C° 0.2 mm 1 mps 740 mmHg 91%
    08:00 +22°C° 0 mm 1 mps 740 mmHg 90%
    09:00 +22°C° 0.4 mm 1 mps 740 mmHg 87%
    10:00 +23°C° 0.4 mm 1 mps 740 mmHg 84%
    11:00 +24°C° 0.4 mm 1 mps 740 mmHg 81%
    12:00 +25°C° 0.4 mm 1 mps 740 mmHg 76%
    13:00 +26°C° 0.4 mm 1 mps 740 mmHg 71%
    14:00 +27°C° 0 mm 2 mps 740 mmHg 70%
    15:00 +27°C° 0.4 mm 2 mps 740 mmHg 70%
    16:00 +27°C° 0.4 mm 2 mps 740 mmHg 70%
    17:00 +27°C° 0.4 mm 2 mps 740 mmHg 70%
    18:00 +26°C° 0.6 mm 2 mps 740 mmHg 75%
    19:00 +24°C° 0.6 mm 2 mps 740 mmHg 79%
    20:00 +23°C° 0.6 mm 1 mps 740 mmHg 84%
    21:00 +22°C° 0.2 mm 1 mps 740 mmHg 86%
    22:00 +22°C° 0.2 mm 1 mps 740 mmHg 89%
    23:00 +20°C° 0.2 mm 2 mps 740 mmHg 91%

    Tomorrow, 19 July, Thursday

    Time Temperature Precipitation Wind Pressure Humidity
    00:00 +20°C° 0 mm 2 mps 740 mmHg 92%
    01:00 +20°C° 0 mm 2 mps 740 mmHg 93%
    02:00 +19°C° 0 mm 2 mps 740 mmHg 94%
    03:00 +19°C° 0 mm 2 mps 740 mmHg 94%
    04:00 +19°C° 0 mm 2 mps 741 mmHg 95%
    05:00 +19°C° 0 mm 2 mps 741 mmHg 95%
    06:00 +20°C° 0 mm 2 mps 741 mmHg 91%
    07:00 +23°C° 0 mm 2 mps 741 mmHg 86%
    08:00 +24°C° 0 mm 2 mps 741 mmHg 82%
    09:00 +25°C° 0.2 mm 2 mps 741 mmHg 77%
    10:00 +26°C° 0.2 mm 2 mps 741 mmHg 71%
    11:00 +27°C° 0.2 mm 2 mps 741 mmHg 66%
    12:00 +28°C° 0.2 mm 2 mps 741 mmHg 63%
    13:00 +29°C° 0.2 mm 2 mps 741 mmHg 60%
    14:00 +29°C° 0.2 mm 2 mps 741 mmHg 57%
    15:00 +29°C° 0.1 mm 2 mps 741 mmHg 58%
    16:00 +29°C° 0.1 mm 2 mps 741 mmHg 59%
    17:00 +29°C° 0.1 mm 2 mps 741 mmHg 61%
    18:00 +27°C° 0.4 mm 2 mps 741 mmHg 67%
    19:00 +26°C° 0.4 mm 2 mps 741 mmHg 73%
    20:00 +24°C° 0.4 mm 2 mps 741 mmHg 79%
    21:00 +23°C° 0 mm 2 mps 741 mmHg 82%
    22:00 +21°C° 0 mm 2 mps 741 mmHg 85%
    23:00 +21°C° 0 mm 2 mps 741 mmHg 88%

    Day after tomorrow, 20 July, Friday

    Time Temperature Precipitation Wind Pressure Humidity
    00:00 +20°C° 0 mm 2 mps 741 mmHg 90%
    01:00 +20°C° 0 mm 2 mps 741 mmHg 91%
    02:00 +20°C° 0 mm 2 mps 741 mmHg 93%
    03:00 +19°C° 0 mm 2 mps 741 mmHg 94%
    04:00 +19°C° 0 mm 3 mps 741 mmHg 95%
    05:00 +19°C° 0 mm 3 mps 741 mmHg 96%
    06:00 +20°C° 0 mm 3 mps 742 mmHg 92%
    07:00 +21°C° 0 mm 3 mps 742 mmHg 87%
    08:00 +24°C° 0 mm 3 mps 742 mmHg 83%
    09:00 +25°C° 0.1 mm 3 mps 742 mmHg 79%
    10:00 +26°C° 0.1 mm 3 mps 742 mmHg 74%
    11:00 +27°C° 0.1 mm 3 mps 742 mmHg 69%
    12:00 +27°C° 0.7 mm 4 mps 742 mmHg 68%
    13:00 +27°C° 0.7 mm 4 mps 742 mmHg 66%
    14:00 +28°C° 0.7 mm 4 mps 742 mmHg 65%
    15:00 +28°C° 0.3 mm 4 mps 742 mmHg 66%
    16:00 +28°C° 0.3 mm 4 mps 742 mmHg 67%
    17:00 +28°C° 0.3 mm 3 mps 742 mmHg 67%
    18:00 +26°C° 0.3 mm 3 mps 742 mmHg 72%
    19:00 +25°C° 0.3 mm 3 mps 742 mmHg 77%
    20:00 +24°C° 0.3 mm 2 mps 742 mmHg 82%
    21:00 +23°C° 0.2 mm 2 mps 742 mmHg 85%
    22:00 +21°C° 0.2 mm 3 mps 743 mmHg 88%
    23:00 +20°C° 0.2 mm 3 mps 743 mmHg 91%

    21 July, Saturday

    Time Temperature Precipitation Wind Pressure Humidity
    00:00 +20°C° 0.1 mm 3 mps 743 mmHg 92%
    01:00 +20°C° 0.1 mm 2 mps 743 mmHg 93%
    02:00 +19°C° 0.1 mm 2 mps 743 mmHg 95%
    03:00 +19°C° 0 mm 2 mps 743 mmHg 95%
    04:00 +19°C° 0 mm 2 mps 743 mmHg 96%
    05:00 +19°C° 0 mm 2 mps 743 mmHg 96%
    06:00 +20°C° 0 mm 3 mps 743 mmHg 92%
    07:00 +22°C° 0 mm 3 mps 743 mmHg 87%
    08:00 +24°C° 0 mm 3 mps 744 mmHg 82%
    09:00 +25°C° 0.2 mm 3 mps 744 mmHg 77%
    10:00 +26°C° 0.2 mm 4 mps 744 mmHg 72%
    11:00 +28°C° 0.2 mm 4 mps 744 mmHg 67%
    12:00 +28°C° 0.5 mm 4 mps 744 mmHg 66%
    13:00 +28°C° 0.5 mm 4 mps 744 mmHg 65%
    14:00 +29°C° 0.5 mm 4 mps 744 mmHg 64%
    15:00 +28°C° 0.5 mm 4 mps 744 mmHg 66%
    16:00 +28°C° 0.5 mm 4 mps 744 mmHg 68%
    17:00 +28°C° 0.5 mm 4 mps 744 mmHg 70%
    18:00 +26°C° 0.3 mm 4 mps 744 mmHg 75%
    19:00 +25°C° 0.3 mm 3 mps 744 mmHg 80%
    20:00 +24°C° 0.3 mm 3 mps 744 mmHg 86%
    21:00 +22°C° 0 mm 3 mps 744 mmHg 87%
    22:00 +21°C° 0 mm 3 mps 744 mmHg 89%
    23:00 +21°C° 0 mm 3 mps 744 mmHg 91%

    22 July, Sunday

    Time Temperature Precipitation Wind Pressure Humidity
    00:00 +20°C° 0 mm 3 mps 744 mmHg 92%
    01:00 +20°C° 0 mm 3 mps 744 mmHg 92%
    02:00 +20°C° 0 mm 3 mps 744 mmHg 93%
    03:00 +20°C° 0 mm 3 mps 744 mmHg 94%
    04:00 +19°C° 0 mm 3 mps 744 mmHg 94%
    05:00 +19°C° 0 mm 3 mps 744 mmHg 94%
    06:00 +20°C° 0 mm 3 mps 744 mmHg 91%
    07:00 +21°C° 0 mm 4 mps 745 mmHg 87%
    08:00 +23°C° 0 mm 4 mps 745 mmHg 83%
    09:00 +25°C° 0 mm 4 mps 745 mmHg 78%
    10:00 +26°C° 0 mm 4 mps 745 mmHg 72%
    11:00 +27°C° 0 mm 4 mps 744 mmHg 67%
    12:00 +28°C° 0 mm 4 mps 744 mmHg 64%
    13:00 +29°C° 0 mm 4 mps 744 mmHg 61%
    14:00 +29°C° 0 mm 4 mps 744 mmHg 57%
    15:00 +29°C° 0.2 mm 4 mps 744 mmHg 60%
    16:00 +29°C° 0.2 mm 4 mps 744 mmHg 62%
    17:00 +29°C° 0.2 mm 3 mps 744 mmHg 64%
    18:00 +27°C° 0.2 mm 3 mps 744 mmHg 69%
    19:00 +26°C° 0.2 mm 3 mps 744 mmHg 74%
    20:00 +24°C° 0.2 mm 2 mps 744 mmHg 78%
    21:00 +24°C° 0 mm 2 mps 744 mmHg 80%
    22:00 +22°C° 0 mm 3 mps 744 mmHg 82%
    23:00 +21°C° 0 mm 3 mps 744 mmHg 84%

    23 July, Monday

    Time Temperature Precipitation Wind Pressure Humidity
    00:00 +21°C° 0 mm 3 mps 744 mmHg 86%
    01:00 +21°C° 0 mm 2 mps 744 mmHg 87%
    02:00 +21°C° 0 mm 2 mps 744 mmHg 89%
    03:00 +20°C° 0 mm 2 mps 744 mmHg 90%
    04:00 +20°C° 0 mm 2 mps 744 mmHg 91%
    05:00 +20°C° 0 mm 2 mps 744 mmHg 91%
    06:00 +21°C° 0 mm 3 mps 745 mmHg 88%
    07:00 +22°C° 0 mm 3 mps 745 mmHg 84%
    08:00 +24°C° 0 mm 3 mps 745 mmHg 81%
    09:00 +25°C° 0 mm 3 mps 745 mmHg 75%
    10:00 +26°C° 0 mm 4 mps 745 mmHg 68%
    11:00 +28°C° 0 mm 4 mps 745 mmHg 62%
    12:00 +28°C° 0 mm 4 mps 745 mmHg 59%
    13:00 +29°C° 0 mm 4 mps 744 mmHg 57%
    14:00 +30°C° 0 mm 4 mps 744 mmHg 54%
    15:00 +29°C° 0 mm 3 mps 744 mmHg 56%
    16:00 +29°C° 0 mm 3 mps 744 mmHg 58%
    17:00 +29°C° 0 mm 3 mps 745 mmHg 60%
    18:00 +27°C° 0.1 mm 3 mps 745 mmHg 65%
    19:00 +26°C° 0.1 mm 2 mps 745 mmHg 69%
    20:00 +24°C° 0.1 mm 2 mps 745 mmHg 73%
    21:00 +24°C° 0 mm 2 mps 745 mmHg 75%
    22:00 +22°C° 0 mm 3 mps 746 mmHg 76%
    23:00 +21°C° 0 mm 3 mps 746 mmHg 77%
    Show more